Hourly Weather Roundup
Issued by NWS Central Illinois

Home | Current Version | Previous Version | Text Only | Print | Product List | Glossary On
Versions: 1 2 3 4 5 6 7 8 9 10 11 12 13 14 15 16 17 18 19 20 21 22 23 24 25 26 27 28 29 30 31 32 33 34 35 36 37 38 39 40 41 42 43 44 45 46 47 48 49 50
000
NZUS43 KILX 291010
HWRILX

AREA WEATHER ROUNDUP
NATIONAL WEATHER SERVICE, LINCOLN IL
500 AM CDT SAT AUG 29 2015


CITY           SKY/WX    TMP DP  RH WIND       PRES   REMARKS
BLOOMINGTON    CLOUDY    66  62  87 S9        30.03F
CHAMPAIGN      CLOUDY    66  60  81 SE7       30.03F
DANVILLE       MOCLDY    62  60  93 CALM      30.03S
DECATUR        CLOUDY    68  61  78 S5        30.03F
EFFINGHAM      CLOUDY    66  61  84 E3        30.06R
FLORA          CLOUDY    66  63  90 CALM      30.05S
GALESBURG      CLOUDY    65  62  89 S6        29.97S
JACKSONVILLE   CLOUDY    70  64  81 S7        29.99F
LACON          CLOUDY    65  61  84 SE6       29.99F
LAWRENCEVILLE  CLOUDY    67  63  87 SE5       30.06S
LITCHFIELD     CLOUDY    66  63  88 SE5       30.02F
$$


CITY           SKY/WX    TMP DP  RH WIND       PRES   REMARKS
LINCOLN        LGT RAIN  65  63  90 S5        30.01F
MACOMB         CLOUDY    67  63  86 S7        29.98F
MATTOON        HAZE      67  60  78 S7        30.03F VSB 1/2
MT CARMEL AP   LGT RAIN  64  63  94 SE6       30.06S
OLNEY-NOBLE AP CLOUDY    64  63  94 CALM      30.05S
PARIS          MOCLDY    60  59  97 CALM      30.05F
PEORIA         CLOUDY    68  62  81 S7        29.99F
PONTIAC        LGT RAIN  65  63  95 SE3       30.03S
RANTOUL        CLOUDY    65  62  89 SE3       30.04F
ROBINSON       CLOUDY    64  62  95 CALM      30.06S
SPRINGFIELD    CLOUDY    70  64  81 S10       30.00F
TAYLORVILLE    LGT RAIN  64  63  94 SE3       30.02S
$$

...REGIONAL REPORTS...


CITY           SKY/WX    TMP DP  RH WIND       PRES   REMARKS
CHICAGO O`HARE LGT RAIN  64  61  90 S8        30.04R
KANKAKEE       CLOUDY    64  60  90 CALM      30.05S
MOLINE         CLOUDY    68  62  81 S8        29.94F
MOUNT STERLING CLOUDY    66  63  90 S6        29.97F
MOUNT VERNON   CLOUDY    66  61  82 CALM      30.05S
PITTSFIELD     CLOUDY    68  64  85 S5        30.00S
QUINCY         CLOUDY    69  62  78 S7        29.97S
ROCKFORD       HVY RAIN  62  60  93 SE14      30.00F FOG
$$


CITY           SKY/WX    TMP DP  RH WIND       PRES   REMARKS
BURLINGTON     CLOUDY    69  63  81 S9        29.95S
CEDAR RAPIDS   CLOUDY    66  66 100 S5        29.93S
DES MOINES     CLOUDY    65  62  90 NW7       29.95R
KIRKSVILLE     CLOUDY    68  64  87 S5        29.96S
OTTUMWA        CLOUDY    67  66  97 S5        29.92S
ST LOUIS       CLOUDY    73  62  68 S6        30.01F
$$


CITY           SKY/WX    TMP DP  RH WIND       PRES   REMARKS
TERRE HAUTE    MOCLDY    64  60  87 CALM      30.06S
EVANSVILLE     CLOUDY    69  65  86 CALM      30.07R
INDIANAPOLIS   MOCLDY    66  59  78 SE6       30.07S
LAFAYETTE      CLOUDY    63  59  87 CALM      30.06S
MADISON        LGT RAIN  63  61  93 SE10      30.00S FOG
MILWAUKEE      RAIN      64  62  93 E6        30.04S FOG
$$





USA.gov is the U.S. government's official web portal to all federal, state and local government web resources and services.